Weather History for K06D - January, 2014

Change the Weather History Date:

Saturday, January 11, 2014

  Actual Average (KRUG) Record (KRUG)
Temperature  
Mean Temperature 21 °F -  
Max Temperature 28 °F 11 °F 44 °F (1986)
Min Temperature 14 °F -8 °F -30 °F (1974)
Degree Days  
Heating Degree Days 44    
Moisture  
Dew Point 19 °F    
Average Humidity 88    
Maximum Humidity 100    
Minimum Humidity 69    
Precipitation  
Precipitation 0.00 in - - ()
Sea Level Pressure  
Sea Level Pressure 29.45 in    
Wind  
Wind Speed 13 mph (WSW)    
Max Wind Speed 24 mph    
Max Gust Speed 28 mph    
Visibility 10 miles    
Events      
Averages and records for this station are not official NWS values.
T = Trace of Precipitation, MM = Missing Value Source: NWS Daily Summary

Daily Weather History Graph

Daily Weather History Graph

Search for Another Location

Airport or City:

Trip Planner

Search our weather history database for the weather conditions in past years. The results will help you decide how hot, cold, wet, or windy it might be!

Date:

Astronomy

Jan. 11, 2014 Rise Set
Actual Time 8:29 AM CST 5:04 PM CST
Civil Twilight 7:52 AM CST 5:40 PM CST
Nautical Twilight 7:13 AM CST 6:20 PM CST
Astronomical Twilight 6:35 AM CST 6:58 PM CST
Moon 1:53 PM CST (1/11) 4:30 AM CST (1/11)
Length of Visible Light 9h 47m
Length of Day
8h 35m
Waxing Gibbous, 83% of the Moon is Illuminated
Jan 11
Waxing Gibbous
Jan 15
Full
Jan 23
Last Quarter
Jan 30
New
Feb 6
First Quarter

Hourly Weather History & Observations

Time (CST) Temp. Windchill Dew Point Humidity Pressure Visibility Wind Dir Wind Speed Gust Speed Precip Events Conditions
12:15 AM 24.8 °F 11.5 °F 24.8 °F 100% 29.49 in 10.0 mi NW 17.3 mph 27.6 mph N/A   Overcast
12:35 AM 23.0 °F 10.6 °F 23.0 °F 100% 29.49 in 10.0 mi NW 13.8 mph - N/A   Scattered Clouds
12:55 AM 23.0 °F 10.6 °F 23.0 °F 100% 29.50 in 10.0 mi NW 13.8 mph - N/A   Clear
1:15 AM 23.0 °F 11.7 °F 21.2 °F 93% 29.49 in 10.0 mi NNW 11.5 mph 18.4 mph N/A   Clear
1:35 AM 23.0 °F 8.7 °F 21.2 °F 93% 29.49 in 10.0 mi NW 18.4 mph - N/A   Clear
1:55 AM 24.8 °F 12.4 °F 21.2 °F 86% 29.49 in 10.0 mi NW 15.0 mph - N/A   Clear
2:15 AM 23.0 °F 10.1 °F 19.4 °F 86% 29.50 in 10.0 mi NW 15.0 mph - N/A   Clear
2:35 AM 24.8 °F 12.4 °F 17.6 °F 74% 29.51 in 10.0 mi NW 15.0 mph - N/A   Clear
2:55 AM 24.8 °F 12.4 °F 17.6 °F 74% 29.52 in 10.0 mi NW 15.0 mph - N/A   Clear
3:15 AM 26.6 °F 13.4 °F 17.6 °F 69% 29.52 in 10.0 mi NW 18.4 mph - N/A   Clear
3:35 AM 24.8 °F 11.5 °F 17.6 °F 74% 29.53 in 10.0 mi NW 17.3 mph - N/A   Clear
3:55 AM 24.8 °F 12.9 °F 17.6 °F 74% 29.54 in 10.0 mi NW 13.8 mph - N/A   Clear
4:15 AM 23.0 °F 11.1 °F 17.6 °F 80% 29.54 in 10.0 mi NW 12.7 mph - N/A   Mostly Cloudy
4:35 AM 24.8 °F 11.9 °F 19.4 °F 80% 29.54 in 10.0 mi WNW 16.1 mph - N/A   Overcast
4:55 AM 26.6 °F 15.2 °F 19.4 °F 74% 29.54 in 10.0 mi WNW 13.8 mph - N/A   Overcast
5:15 AM 26.6 °F 16.2 °F 19.4 °F 74% 29.53 in 10.0 mi WNW 11.5 mph - N/A   Overcast
5:35 AM 26.6 °F 15.2 °F 19.4 °F 74% 29.54 in 10.0 mi WNW 13.8 mph - N/A   Overcast
5:55 AM 26.6 °F 16.2 °F 21.2 °F 80% 29.53 in 10.0 mi WNW 11.5 mph - N/A   Overcast
6:15 AM 28.4 °F 18.5 °F 21.2 °F 74% 29.55 in 10.0 mi WNW 11.5 mph - N/A   Overcast
6:35 AM 26.6 °F 17.5 °F 21.2 °F 80% 29.55 in 10.0 mi WNW 9.2 mph - N/A   Overcast
6:55 AM 26.6 °F 19.1 °F 23.0 °F 86% 29.55 in 10.0 mi WSW 6.9 mph - N/A   Overcast
7:15 AM 24.8 °F 17.9 °F 21.2 °F 86% 29.55 in 10.0 mi WNW 5.8 mph - N/A   Mostly Cloudy
7:35 AM 23.0 °F 14.7 °F 19.4 °F 86% 29.55 in 10.0 mi WNW 6.9 mph - N/A   Partly Cloudy
7:55 AM 17.6 °F 10.7 °F 15.8 °F 93% 29.55 in 10.0 mi West 4.6 mph - N/A   Clear
8:15 AM 19.4 °F 8.6 °F 19.4 °F 100% 29.54 in 10.0 mi WNW 9.2 mph - N/A   Clear
8:35 AM 19.4 °F 12.8 °F 17.6 °F 93% 29.55 in 10.0 mi WSW 4.6 mph - N/A   Clear
8:55 AM 14.0 °F 2.0 °F 12.2 °F 93% 29.55 in 10.0 mi SW 9.2 mph - N/A   Clear
9:15 AM 14.0 °F 3.9 °F 12.2 °F 93% 29.56 in 10.0 mi WSW 6.9 mph - N/A   Clear
9:35 AM 14.0 °F 3.9 °F 14.0 °F 100% 29.57 in 10.0 mi West 6.9 mph - N/A   Clear
9:55 AM 17.6 °F 9.3 °F 15.8 °F 93% 29.56 in 10.0 mi West 5.8 mph - N/A   Clear
10:15 AM 23.0 °F 13.1 °F 17.6 °F 80% 29.56 in 10.0 mi WNW 9.2 mph - N/A   Clear
10:35 AM 23.0 °F 15.8 °F 17.6 °F 80% 29.56 in 10.0 mi SW 5.8 mph - N/A   Clear
10:55 AM 19.4 °F 7.9 °F 15.8 °F 86% 29.57 in 10.0 mi SW 10.4 mph - N/A   Clear
11:15 AM 17.6 °F 5.7 °F 15.8 °F 93% 29.56 in 10.0 mi WSW 10.4 mph - N/A   Clear
11:35 AM 21.2 °F 10.9 °F 17.6 °F 86% 29.56 in 10.0 mi WSW 9.2 mph - N/A   Clear
11:55 AM 23.0 °F 14.7 °F 19.4 °F 86% 29.54 in 10.0 mi WSW 6.9 mph - N/A   Clear
12:15 PM 21.2 °F 16.4 °F 17.6 °F 86% 29.53 in 10.0 mi SSW 3.5 mph - N/A   Clear
12:35 PM 23.0 °F 15.8 °F 19.4 °F 86% 29.52 in 10.0 mi South 5.8 mph - N/A   Clear
12:55 PM 23.0 °F 13.9 °F 17.6 °F 80% 29.51 in 10.0 mi South 8.1 mph - N/A   Clear
1:15 PM 21.2 °F 12.6 °F 17.6 °F 86% 29.51 in 10.0 mi SSW 6.9 mph - N/A   Clear
1:35 PM 23.0 °F 13.9 °F 19.4 °F 86% 29.51 in 10.0 mi SW 8.1 mph - N/A   Clear
1:55 PM 23.0 °F 13.9 °F 19.4 °F 86% 29.49 in 10.0 mi SW 8.1 mph - N/A   Clear
2:15 PM 23.0 °F 13.1 °F 17.6 °F 80% 29.48 in 10.0 mi SW 9.2 mph - N/A   Clear
2:35 PM 23.0 °F 13.9 °F 19.4 °F 86% 29.47 in 10.0 mi SW 8.1 mph - N/A   Clear
2:55 PM 23.0 °F 12.4 °F 19.4 °F 86% 29.46 in 10.0 mi SW 10.4 mph - N/A   Clear
3:15 PM 23.0 °F 11.7 °F 17.6 °F 80% 29.47 in 10.0 mi SSW 11.5 mph - N/A   Partly Cloudy
3:35 PM 19.4 °F 7.9 °F 17.6 °F 93% 29.47 in 10.0 mi South 10.4 mph - N/A   Mostly Cloudy
3:55 PM 19.4 °F 11.5 °F 17.6 °F 93% 29.46 in 10.0 mi WSW 5.8 mph - N/A   Overcast
4:15 PM 19.4 °F 8.6 °F 17.6 °F 93% 29.45 in 10.0 mi SSW 9.2 mph - N/A   Overcast
4:35 PM 19.4 °F 6.0 °F 15.8 °F 86% 29.45 in 10.0 mi SSW 13.8 mph - N/A   Overcast
4:55 PM 17.6 °F 4.3 °F 15.8 °F 93% 29.44 in 10.0 mi SW 12.7 mph - N/A   Overcast
5:15 PM 17.6 °F 4.3 °F 15.8 °F 93% 29.44 in 10.0 mi SW 12.7 mph - N/A   Overcast
5:35 PM 19.4 °F 7.2 °F 17.6 °F 93% 29.44 in 10.0 mi SW 11.5 mph - N/A   Overcast
5:55 PM 19.4 °F 7.9 °F 17.6 °F 93% 29.41 in 10.0 mi SW 10.4 mph - N/A   Overcast
6:15 PM 19.4 °F 5.5 °F 17.6 °F 93% 29.41 in 10.0 mi SSW 15.0 mph - N/A   Overcast
6:35 PM 19.4 °F 6.6 °F 17.6 °F 93% 29.39 in 10.0 mi SSW 12.7 mph - N/A   Overcast
6:55 PM 19.4 °F 7.2 °F 19.4 °F 100% 29.36 in 10.0 mi South 11.5 mph - N/A   Overcast
7:15 PM 21.2 °F 8.9 °F 19.4 °F 93% 29.34 in 10.0 mi South 12.7 mph - N/A   Overcast
7:35 PM 21.2 °F 9.5 °F 19.4 °F 93% 29.32 in 10.0 mi South 11.5 mph 17.3 mph N/A   Overcast
7:55 PM 23.0 °F 11.1 °F 21.2 °F 93% 29.32 in 10.0 mi South 12.7 mph - N/A   Overcast
8:15 PM 23.0 °F 12.4 °F 21.2 °F 93% 29.29 in 10.0 mi South 10.4 mph - N/A   Overcast
8:35 PM 23.0 °F 11.1 °F 21.2 °F 93% 29.28 in 10.0 mi South 12.7 mph - N/A   Overcast
8:55 PM 23.0 °F 11.7 °F 23.0 °F 100% 29.28 in 10.0 mi South 11.5 mph - N/A   Overcast
9:15 PM 24.8 °F 14.0 °F 23.0 °F 93% 29.27 in 10.0 mi SSW 11.5 mph - N/A   Overcast
9:35 PM 24.8 °F 11.9 °F 23.0 °F 93% 29.25 in 10.0 mi South 16.1 mph 19.6 mph N/A   Overcast
9:55 PM 24.8 °F 11.5 °F 23.0 °F 93% 29.24 in 10.0 mi SSW 17.3 mph - N/A   Overcast
10:15 PM 26.6 °F 14.7 °F 24.8 °F 93% 29.22 in 10.0 mi South 15.0 mph 21.9 mph N/A   Mostly Cloudy
10:35 PM 26.6 °F 15.2 °F 24.8 °F 93% 29.20 in 10.0 mi South 13.8 mph - N/A   Mostly Cloudy
10:55 PM 26.6 °F 13.4 °F 24.8 °F 93% 29.19 in 10.0 mi SSW 18.4 mph 24.2 mph N/A   Overcast
11:15 PM 26.6 °F 12.7 °F 24.8 °F 93% 29.18 in 10.0 mi SSW 20.7 mph 25.3 mph N/A   Overcast
11:35 PM 26.6 °F 11.7 °F 24.8 °F 93% 29.17 in 10.0 mi SSW 24.2 mph - N/A   Overcast
11:55 PM 28.4 °F 14.7 °F 26.6 °F 93% 29.16 in 10.0 mi SSW 21.9 mph - N/A   Mostly Cloudy